This is the latest recevied weather packets stored in our database for station/object G4KVI. If no packets are shown the sender has not sent any weather packets the latest 10 day(s).
| Time | Temp. | Humidity | Pressure | Rain* | Wind** | Luminosity | Snow |
|---|---|---|---|---|---|---|---|
| 1787944505 | 16.67° C | 93% | 1010.2 hPa | 0 mm | - | 0 W/m² | - |
| 1787944205 | 16.67° C | 93% | 1010 hPa | 0 mm | - | 0 W/m² | - |
| 1787943905 | 16.67° C | 92% | 1009.9 hPa | 0 mm | - | 2 W/m² | - |
| 1787943605 | 16.67° C | 92% | 1010 hPa | 0.25 mm | - | 4 W/m² | - |
| 1787943305 | 16.67° C | 92% | 1009.8 hPa | 0.25 mm | - | 6 W/m² | - |
| 1787943005 | 16.67° C | 92% | 1009.9 hPa | 0.25 mm | - | 8 W/m² | - |
| 1787942705 | 16.67° C | 92% | 1009.9 hPa | 0.51 mm | - | 11 W/m² | - |
| 1787942405 | 16.67° C | 92% | 1009.8 hPa | 0.51 mm | - | 14 W/m² | - |
| 1787942105 | 16.67° C | 91% | 1009.7 hPa | 1.02 mm | - | 14 W/m² | - |
| 1787941805 | 16.67° C | 91% | 1009.7 hPa | 1.02 mm | - | 19 W/m² | - |
| 1787941505 | 16.67° C | 91% | 1009.7 hPa | 1.02 mm | - | 29 W/m² | - |
| 1787941205 | 16.67° C | 91% | 1009.7 hPa | 1.02 mm | - | 31 W/m² | - |
| 1787940905 | 16.67° C | 91% | 1009.7 hPa | 1.02 mm | - | 50 W/m² | - |
| 1787940605 | 16.67° C | 91% | 1009.7 hPa | 1.02 mm | - | 51 W/m² | - |
| 1787940305 | 16.67° C | 92% | 1009.6 hPa | 1.02 mm | - | 71 W/m² | - |
| 1787940005 | 16.67° C | 91% | 1009.8 hPa | 0.76 mm | - | 48 W/m² | - |
| 1787939705 | 16.67° C | 91% | 1009.8 hPa | 0.76 mm | - | 40 W/m² | - |
| 1787939405 | 16.67° C | 90% | 1010.1 hPa | 1.02 mm | - | 41 W/m² | - |
| 1787939105 | 16.67° C | 90% | 1009.8 hPa | 0.76 mm | - | 37 W/m² | - |
| 1787938805 | 16.67° C | 90% | 1010 hPa | 0.76 mm | - | 28 W/m² | - |
| 1787938505 | 16.67° C | 89% | 1010 hPa | 0.51 mm | - | 34 W/m² | - |
| 1787938205 | 16.67° C | 89% | 1010.1 hPa | 0.76 mm | - | 24 W/m² | - |
| 1787937905 | 16.67° C | 89% | 1009.9 hPa | 0.76 mm | - | 24 W/m² | - |
| 1787937605 | 16.67° C | 89% | 1009.8 hPa | 1.02 mm | - | 38 W/m² | - |
| 1787937305 | 16.67° C | 89% | 1009.7 hPa | 1.02 mm | - | 42 W/m² | - |
* Rain latest hour (hover to see other rain measurements)
** Current wind speed in m/s (hover to see current wind gust speed)